Time,TemperatureF,DewpointF,PressureIn,WindDirection,WindDirectionDegrees,WindSpeedMPH,WindSpeedGustMPH,Humidity,HourlyPrecipIn,Conditions,Clouds,dailyrainin,SoftwareType,DateUTC
2013-03-23 00:01:00,35.8,25.5,29.36,SW,215,0.0,0.0,66,0.00,,,0.00,meteohub,2013-03-23 05:01:00,
2013-03-23 00:06:00,35.8,25.5,29.36,SW,215,1.0,0.0,66,0.00,,,0.00,meteohub,2013-03-23 05:06:00,
2013-03-23 00:12:00,35.8,25.9,29.36,SW,215,1.0,2.0,67,0.00,,,0.00,meteohub,2013-03-23 05:12:00,
2013-03-23 00:17:00,35.8,25.9,29.36,SW,215,1.0,2.0,67,0.00,,,0.00,meteohub,2013-03-23 05:17:00,
2013-03-23 00:22:00,35.6,25.7,29.36,SW,215,0.0,2.0,67,0.00,,,0.00,meteohub,2013-03-23 05:22:00,
2013-03-23 00:27:00,35.6,26.1,29.36,SW,215,0.0,2.0,68,0.00,,,0.00,meteohub,2013-03-23 05:27:00,
2013-03-23 00:32:00,35.6,26.1,29.36,SW,215,0.0,2.0,68,0.00,,,0.00,meteohub,2013-03-23 05:32:00,
2013-03-23 00:37:00,35.6,26.1,29.36,SW,215,0.0,1.0,68,0.00,,,0.00,meteohub,2013-03-23 05:37:00,
2013-03-23 00:42:00,35.6,26.1,29.36,SW,215,0.0,1.0,68,0.00,,,0.00,meteohub,2013-03-23 05:42:00,
2013-03-23 00:47:00,35.4,25.9,29.36,SW,215,0.0,1.0,68,0.00,,,0.00,meteohub,2013-03-23 05:47:00,
2013-03-23 00:52:00,35.4,26.2,29.36,SW,215,0.0,3.0,69,0.00,,,0.00,meteohub,2013-03-23 05:52:00,
2013-03-23 00:57:00,35.4,26.2,29.35,SW,215,0.0,3.0,69,0.00,,,0.00,meteohub,2013-03-23 05:57:00,
2013-03-23 01:02:00,35.4,26.2,29.36,SW,215,0.0,3.0,69,0.00,,,0.00,meteohub,2013-03-23 06:02:00,
2013-03-23 01:07:00,35.4,25.9,29.35,SW,216,0.0,2.0,68,0.00,,,0.00,meteohub,2013-03-23 06:07:00,
2013-03-23 01:12:00,35.4,25.9,29.35,West,279,0.0,0.0,68,0.00,,,0.00,meteohub,2013-03-23 06:12:00,
2013-03-23 01:17:00,35.2,25.7,29.35,West,279,0.0,0.0,68,0.00,,,0.00,meteohub,2013-03-23 06:17:00,
2013-03-23 01:22:00,35.2,25.7,29.36,WNW,300,3.0,4.0,68,0.00,,,0.00,meteohub,2013-03-23 06:22:00,
2013-03-23 01:27:00,35.2,25.7,29.35,WNW,300,2.0,4.0,68,0.00,,,0.00,meteohub,2013-03-23 06:27:00,
2013-03-23 01:32:00,35.2,25.7,29.35,WNW,300,0.0,4.0,68,0.00,,,0.00,meteohub,2013-03-23 06:32:00,
2013-03-23 01:37:00,35.2,26.1,29.35,WNW,300,0.0,4.0,69,0.00,,,0.00,meteohub,2013-03-23 06:37:00,
2013-03-23 01:42:00,35.2,26.1,29.36,WNW,300,0.0,4.0,69,0.00,,,0.00,meteohub,2013-03-23 06:42:00,
2013-03-23 01:47:00,35.1,25.9,29.36,WNW,300,0.0,0.0,69,0.00,,,0.00,meteohub,2013-03-23 06:47:00,
2013-03-23 01:53:00,35.1,26.2,29.36,WNW,300,0.0,0.0,70,0.00,,,0.00,meteohub,2013-03-23 06:53:00,
2013-03-23 01:58:00,35.1,26.2,29.36,WNW,300,0.0,0.0,70,0.00,,,0.00,meteohub,2013-03-23 06:58:00,
2013-03-23 02:03:00,35.1,26.2,29.35,WNW,300,0.0,0.0,70,0.00,,,0.00,meteohub,2013-03-23 07:03:00,
2013-03-23 02:08:00,34.9,26.1,29.35,WNW,300,0.0,0.0,70,0.00,,,0.00,meteohub,2013-03-23 07:08:00,
2013-03-23 02:13:00,34.9,26.1,29.35,WNW,300,0.0,0.0,70,0.00,,,0.00,meteohub,2013-03-23 07:13:00,
2013-03-23 02:18:00,34.9,26.1,29.35,WNW,300,0.0,0.0,70,0.00,,,0.00,meteohub,2013-03-23 07:18:00,
2013-03-23 02:23:00,34.9,26.1,29.36,WNW,300,0.0,0.0,70,0.00,,,0.00,meteohub,2013-03-23 07:23:00,
2013-03-23 02:28:00,34.9,26.1,29.35,WNW,300,0.0,0.0,70,0.00,,,0.00,meteohub,2013-03-23 07:28:00,
2013-03-23 02:33:00,34.9,26.1,29.36,WNW,300,0.0,0.0,70,0.00,,,0.00,meteohub,2013-03-23 07:33:00,
2013-03-23 02:38:00,34.9,26.1,29.36,WNW,300,0.0,0.0,70,0.00,,,0.00,meteohub,2013-03-23 07:38:00,
2013-03-23 02:43:00,34.7,25.9,29.35,WNW,300,0.0,0.0,70,0.00,,,0.00,meteohub,2013-03-23 07:43:00,
2013-03-23 02:48:00,34.7,25.9,29.35,WNW,300,0.0,0.0,70,0.00,,,0.00,meteohub,2013-03-23 07:48:00,
2013-03-23 02:53:00,34.7,25.9,29.35,WNW,300,0.0,0.0,70,0.00,,,0.00,meteohub,2013-03-23 07:53:00,
2013-03-23 02:58:00,34.7,25.9,29.36,WNW,300,0.0,0.0,70,0.00,,,0.00,meteohub,2013-03-23 07:58:00,
2013-03-23 03:03:00,34.9,26.1,29.37,WNW,300,0.0,0.0,70,0.00,,,0.00,meteohub,2013-03-23 08:03:00,
2013-03-23 03:08:00,34.9,26.1,29.34,WNW,300,1.0,3.0,70,0.00,,,0.00,meteohub,2013-03-23 08:08:00,
2013-03-23 03:13:00,34.9,26.1,29.34,WNW,300,0.0,3.0,70,0.00,,,0.00,meteohub,2013-03-23 08:13:00,
2013-03-23 03:18:00,34.9,26.1,29.34,WNW,300,0.0,3.0,70,0.00,,,0.00,meteohub,2013-03-23 08:18:00,
2013-03-23 03:23:00,34.9,26.1,29.35,WNW,300,0.0,2.0,70,0.00,,,0.00,meteohub,2013-03-23 08:23:00,
2013-03-23 03:28:00,34.9,26.1,29.35,WNW,300,0.0,0.0,70,0.00,,,0.00,meteohub,2013-03-23 08:28:00,
2013-03-23 03:33:00,34.9,25.7,29.35,WNW,300,0.0,0.0,69,0.00,,,0.00,meteohub,2013-03-23 08:33:00,
2013-03-23 03:38:00,34.9,25.7,29.35,WNW,300,0.0,0.0,69,0.00,,,0.00,meteohub,2013-03-23 08:38:00,
2013-03-23 03:43:00,34.9,25.7,29.35,WNW,300,0.0,0.0,69,0.00,,,0.00,meteohub,2013-03-23 08:43:00,
2013-03-23 03:48:00,34.9,25.7,29.35,WNW,300,2.0,0.0,69,0.00,,,0.00,meteohub,2013-03-23 08:48:00,
2013-03-23 03:53:00,34.9,25.7,29.34,WNW,300,2.0,4.0,69,0.00,,,0.00,meteohub,2013-03-23 08:53:00,
2013-03-23 03:58:00,34.9,25.7,29.34,WNW,300,2.0,4.0,69,0.00,,,0.00,meteohub,2013-03-23 08:58:00,
2013-03-23 04:03:00,34.9,25.7,29.34,WNW,300,1.0,4.0,69,0.00,,,0.00,meteohub,2013-03-23 09:03:00,
2013-03-23 04:09:00,34.9,25.7,29.34,WNW,300,0.0,4.0,69,0.00,,,0.00,meteohub,2013-03-23 09:09:00,
2013-03-23 04:14:00,34.9,25.7,29.34,WNW,300,0.0,4.0,69,0.00,,,0.00,meteohub,2013-03-23 09:14:00,
2013-03-23 04:19:00,34.9,25.7,29.34,WNW,300,0.0,4.0,69,0.00,,,0.00,meteohub,2013-03-23 09:19:00,
2013-03-23 04:24:00,34.7,25.2,29.34,WNW,300,0.0,3.0,68,0.00,,,0.00,meteohub,2013-03-23 09:24:00,
2013-03-23 04:29:00,34.7,25.2,29.34,WNW,300,0.0,1.0,68,0.00,,,0.00,meteohub,2013-03-23 09:29:00,
2013-03-23 04:34:00,34.7,25.2,29.34,WNW,300,0.0,0.0,68,0.00,,,0.00,meteohub,2013-03-23 09:34:00,
2013-03-23 04:39:00,34.7,25.2,29.34,WNW,300,0.0,0.0,68,0.00,,,0.00,meteohub,2013-03-23 09:39:00,
2013-03-23 04:44:00,34.7,25.2,29.34,WNW,300,0.0,0.0,68,0.00,,,0.00,meteohub,2013-03-23 09:44:00,
2013-03-23 04:49:00,34.7,25.2,29.34,WNW,300,0.0,0.0,68,0.00,,,0.00,meteohub,2013-03-23 09:49:00,
2013-03-23 04:54:00,34.7,25.2,29.33,WNW,300,0.0,0.0,68,0.00,,,0.00,meteohub,2013-03-23 09:54:00,
2013-03-23 04:59:00,34.7,25.5,29.33,WNW,300,0.0,0.0,69,0.00,,,0.00,meteohub,2013-03-23 09:59:00,
2013-03-23 05:04:00,34.7,25.5,29.34,WNW,300,0.0,0.0,69,0.00,,,0.00,meteohub,2013-03-23 10:04:00,
2013-03-23 05:09:00,34.5,25.3,29.34,WNW,300,0.0,1.0,69,0.00,,,0.00,meteohub,2013-03-23 10:09:00,
2013-03-23 05:14:00,34.5,25.3,29.34,WNW,300,0.0,3.0,69,0.00,,,0.00,meteohub,2013-03-23 10:14:00,
2013-03-23 05:19:00,34.5,25.3,29.33,WNW,300,0.0,3.0,69,0.00,,,0.00,meteohub,2013-03-23 10:19:00,
2013-03-23 05:24:00,34.5,25.7,29.34,WNW,300,0.0,3.0,70,0.00,,,0.00,meteohub,2013-03-23 10:24:00,
2013-03-23 05:29:00,34.5,25.7,29.34,WNW,300,0.0,0.0,70,0.00,,,0.00,meteohub,2013-03-23 10:29:00,
2013-03-23 05:34:00,34.5,25.7,29.34,WNW,300,1.0,0.0,70,0.00,,,0.00,meteohub,2013-03-23 10:34:00,
2013-03-23 05:39:00,34.5,25.7,29.34,WNW,300,0.0,2.0,70,0.00,,,0.00,meteohub,2013-03-23 10:39:00,
2013-03-23 05:44:00,34.3,25.5,29.34,WNW,300,1.0,2.0,70,0.00,,,0.00,meteohub,2013-03-23 10:44:00,
2013-03-23 05:49:00,34.3,25.9,29.34,WNW,300,3.0,3.0,71,0.00,,,0.00,meteohub,2013-03-23 10:49:00,
2013-03-23 05:54:00,34.3,25.9,29.34,WNW,300,0.0,3.0,71,0.00,,,0.00,meteohub,2013-03-23 10:54:00,
2013-03-23 05:59:00,34.3,25.9,29.34,WNW,300,0.0,4.0,71,0.00,,,0.00,meteohub,2013-03-23 10:59:00,
2013-03-23 06:04:00,34.3,25.9,29.34,WNW,300,0.0,4.0,71,0.00,,,0.00,meteohub,2013-03-23 11:04:00,
2013-03-23 06:10:00,34.3,25.9,29.34,WNW,300,0.0,4.0,71,0.00,,,0.00,meteohub,2013-03-23 11:10:00,
2013-03-23 06:14:00,34.3,25.9,29.34,WNW,300,0.0,4.0,71,0.00,,,0.00,meteohub,2013-03-23 11:14:00,
2013-03-23 06:20:00,34.3,26.2,29.34,WNW,300,0.0,0.0,72,0.00,,,0.00,meteohub,2013-03-23 11:20:00,
2013-03-23 06:25:00,34.3,26.2,29.35,WNW,300,0.0,3.0,72,0.00,,,0.00,meteohub,2013-03-23 11:25:00,
2013-03-23 06:30:00,34.3,26.2,29.35,WNW,300,0.0,3.0,72,0.00,,,0.00,meteohub,2013-03-23 11:30:00,
2013-03-23 06:35:00,34.3,26.2,29.35,WNW,300,0.0,3.0,72,0.00,,,0.00,meteohub,2013-03-23 11:35:00,
2013-03-23 06:40:00,34.3,26.2,29.35,WNW,300,0.0,0.0,72,0.00,,,0.00,meteohub,2013-03-23 11:40:00,
2013-03-23 06:45:00,34.3,26.2,29.35,WNW,300,0.0,0.0,72,0.00,,,0.00,meteohub,2013-03-23 11:45:00,
2013-03-23 06:50:00,34.3,26.2,29.35,WNW,300,0.0,0.0,72,0.00,,,0.00,meteohub,2013-03-23 11:50:00,
2013-03-23 06:55:00,34.3,26.2,29.36,WNW,300,0.0,0.0,72,0.00,,,0.00,meteohub,2013-03-23 11:55:00,
2013-03-23 07:00:00,34.3,26.2,29.36,WNW,300,0.0,0.0,72,0.00,,,0.00,meteohub,2013-03-23 12:00:00,
2013-03-23 07:05:00,34.3,26.2,29.37,WNW,300,0.0,0.0,72,0.00,,,0.00,meteohub,2013-03-23 12:05:00,
2013-03-23 07:10:00,34.3,26.6,29.37,WNW,300,0.0,4.0,73,0.00,,,0.00,meteohub,2013-03-23 12:10:00,
2013-03-23 07:15:00,34.3,26.6,29.37,WNW,300,2.0,4.0,73,0.00,,,0.00,meteohub,2013-03-23 12:15:00,
2013-03-23 07:20:00,34.3,26.6,29.38,NW,311,0.0,4.0,73,0.00,,,0.00,meteohub,2013-03-23 12:20:00,
2013-03-23 07:25:00,34.3,26.2,29.38,NW,312,0.0,4.0,72,0.00,,,0.00,meteohub,2013-03-23 12:25:00,
2013-03-23 07:30:00,34.3,26.2,29.38,NW,311,0.0,3.0,72,0.00,,,0.00,meteohub,2013-03-23 12:30:00,
2013-03-23 07:35:00,34.3,26.2,29.38,NW,311,0.0,3.0,72,0.00,,,0.00,meteohub,2013-03-23 12:35:00,
2013-03-23 07:40:00,34.3,25.9,29.39,NW,311,0.0,2.0,71,0.00,,,0.00,meteohub,2013-03-23 12:40:00,
2013-03-23 07:46:00,34.5,26.4,29.39,NW,312,1.0,2.0,72,0.00,,,0.00,meteohub,2013-03-23 12:46:00,
2013-03-23 07:51:00,34.5,26.1,29.38,NW,312,0.0,3.0,71,0.00,,,0.00,meteohub,2013-03-23 12:51:00,
2013-03-23 07:56:00,34.5,26.1,29.38,NW,312,1.0,4.0,71,0.00,,,0.00,meteohub,2013-03-23 12:56:00,
2013-03-23 08:01:00,34.5,26.1,29.38,NW,312,3.0,4.0,71,0.00,,,0.00,meteohub,2013-03-23 13:01:00,
2013-03-23 08:06:00,34.5,26.1,29.38,NE,35,3.0,4.0,71,0.00,,,0.00,meteohub,2013-03-23 13:06:00,
2013-03-23 08:11:00,34.5,26.1,29.38,NE,37,4.0,5.0,71,0.00,,,0.00,meteohub,2013-03-23 13:11:00,
2013-03-23 08:16:00,34.5,26.1,29.38,NE,38,2.0,5.0,71,0.00,,,0.00,meteohub,2013-03-23 13:16:00,
2013-03-23 08:21:00,34.5,26.1,29.38,NNE,32,2.0,5.0,71,0.00,,,0.00,meteohub,2013-03-23 13:21:00,
2013-03-23 08:26:00,34.5,26.1,29.38,NE,50,5.0,6.0,71,0.00,,,0.00,meteohub,2013-03-23 13:26:00,
2013-03-23 08:31:00,34.7,26.2,29.38,NNE,32,4.0,6.0,71,0.00,,,0.00,meteohub,2013-03-23 13:31:00,
2013-03-23 08:37:00,34.7,26.2,29.38,NNE,33,3.0,5.0,71,0.00,,,0.00,meteohub,2013-03-23 13:37:00,
2013-03-23 08:42:00,34.7,26.6,29.38,North,11,3.0,6.0,72,0.00,,,0.00,meteohub,2013-03-23 13:42:00,
2013-03-23 08:47:00,34.9,26.8,29.38,NE,37,3.0,6.0,72,0.00,,,0.00,meteohub,2013-03-23 13:47:00,
2013-03-23 08:52:00,34.9,26.8,29.38,NNE,29,2.0,7.0,72,0.00,,,0.00,meteohub,2013-03-23 13:52:00,
2013-03-23 08:57:00,35.1,27.3,29.38,NNE,30,4.0,7.0,73,0.00,,,0.00,meteohub,2013-03-23 13:57:00,
2013-03-23 09:02:00,35.1,27.3,29.38,NE,46,5.0,6.0,73,0.00,,,0.00,meteohub,2013-03-23 14:02:00,
2013-03-23 09:07:00,35.1,27.0,29.38,ENE,74,4.0,7.0,72,0.00,,,0.00,meteohub,2013-03-23 14:07:00,
2013-03-23 09:12:00,35.2,27.5,29.38,NE,46,2.0,7.0,73,0.00,,,0.00,meteohub,2013-03-23 14:12:00,
2013-03-23 09:17:00,35.4,28.0,29.38,NE,49,5.0,7.0,74,0.00,,,0.00,meteohub,2013-03-23 14:17:00,
2013-03-23 09:22:00,35.6,27.9,29.38,ENE,64,4.0,7.0,73,0.00,,,0.00,meteohub,2013-03-23 14:22:00,
2013-03-23 09:27:00,35.8,28.0,29.38,ENE,71,3.0,9.0,73,0.00,,,0.00,meteohub,2013-03-23 14:27:00,
2013-03-23 09:32:00,36.0,28.4,29.38,NE,46,3.0,9.0,74,0.00,,,0.00,meteohub,2013-03-23 14:32:00,
2013-03-23 09:38:00,36.3,28.2,29.37,East,90,3.0,7.0,72,0.00,,,0.00,meteohub,2013-03-23 14:38:00,
2013-03-23 09:43:00,37.0,27.9,29.37,East,79,4.0,6.0,69,0.00,,,0.00,meteohub,2013-03-23 14:43:00,
2013-03-23 09:48:00,37.2,27.7,29.37,NE,54,4.0,10.0,68,0.00,,,0.00,meteohub,2013-03-23 14:48:00,
2013-03-23 09:53:00,37.9,28.0,29.37,East,84,5.0,11.0,67,0.00,,,0.00,meteohub,2013-03-23 14:53:00,
2013-03-23 09:58:00,39.0,28.2,29.37,ESE,114,5.0,11.0,65,0.00,,,0.00,meteohub,2013-03-23 14:58:00,
2013-03-23 10:04:00,39.6,28.0,29.38,ENE,67,4.0,11.0,63,0.00,,,0.00,meteohub,2013-03-23 15:04:00,
2013-03-23 10:09:00,39.7,27.9,29.38,East,91,4.0,7.0,62,0.00,,,0.00,meteohub,2013-03-23 15:09:00,
2013-03-23 10:14:00,39.7,27.9,29.38,ENE,63,1.0,7.0,62,0.00,,,0.00,meteohub,2013-03-23 15:14:00,
2013-03-23 10:19:00,39.7,27.9,29.38,NE,53,3.0,8.0,62,0.00,,,0.00,meteohub,2013-03-23 15:19:00,
2013-03-23 10:24:00,39.9,27.5,29.39,East,79,4.0,8.0,61,0.00,,,0.00,meteohub,2013-03-23 15:24:00,
2013-03-23 10:29:00,39.7,27.3,29.39,ENE,58,8.0,8.0,61,0.00,,,0.00,meteohub,2013-03-23 15:29:00,
2013-03-23 10:34:00,39.6,27.7,29.38,ESE,109,5.0,9.0,62,0.00,,,0.00,meteohub,2013-03-23 15:34:00,
2013-03-23 10:39:00,39.7,27.3,29.38,ESE,111,4.0,9.0,61,0.00,,,0.00,meteohub,2013-03-23 15:39:00,
2013-03-23 10:44:00,39.9,27.5,29.38,NE,46,5.0,10.0,61,0.00,,,0.00,meteohub,2013-03-23 15:44:00,
2013-03-23 10:49:00,40.3,27.5,29.38,ENE,59,5.0,12.0,60,0.00,,,0.00,meteohub,2013-03-23 15:49:00,
2013-03-23 10:54:00,40.6,27.9,29.38,East,90,0.0,12.0,60,0.00,,,0.00,meteohub,2013-03-23 15:54:00,
2013-03-23 10:59:00,41.2,27.5,29.38,ENE,69,4.0,12.0,58,0.00,,,0.00,meteohub,2013-03-23 15:59:00,
2013-03-23 11:04:00,41.5,27.0,29.38,ENE,69,4.0,10.0,56,0.00,,,0.00,meteohub,2013-03-23 16:04:00,
2013-03-23 11:09:00,41.7,26.8,29.38,ENE,75,3.0,11.0,55,0.00,,,0.00,meteohub,2013-03-23 16:09:00,
2013-03-23 11:14:00,42.1,27.1,29.38,NE,48,9.0,11.0,55,0.00,,,0.00,meteohub,2013-03-23 16:14:00,
2013-03-23 11:19:00,42.3,26.4,29.38,ENE,64,5.0,11.0,53,0.00,,,0.00,meteohub,2013-03-23 16:19:00,
2013-03-23 11:24:00,42.4,27.5,29.38,ESE,103,3.0,11.0,55,0.00,,,0.00,meteohub,2013-03-23 16:24:00,
2013-03-23 11:29:00,42.6,27.1,29.38,ENE,58,3.0,11.0,54,0.00,,,0.00,meteohub,2013-03-23 16:29:00,
2013-03-23 11:35:00,43.0,26.6,29.38,NE,44,6.0,11.0,52,0.00,,,0.00,meteohub,2013-03-23 16:35:00,
2013-03-23 11:40:00,43.2,26.2,29.37,ENE,72,1.0,9.0,51,0.00,,,0.00,meteohub,2013-03-23 16:40:00,
2013-03-23 11:45:00,43.3,25.9,29.37,East,90,10.0,12.0,50,0.00,,,0.00,meteohub,2013-03-23 16:45:00,
2013-03-23 11:50:00,43.3,25.5,29.37,NE,56,5.0,12.0,49,0.00,,,0.00,meteohub,2013-03-23 16:50:00,
2013-03-23 11:55:00,43.5,25.2,29.37,NE,53,4.0,12.0,48,0.00,,,0.00,meteohub,2013-03-23 16:55:00,
2013-03-23 12:00:00,43.9,24.4,29.37,ENE,74,10.0,12.0,46,0.00,,,0.00,meteohub,2013-03-23 17:00:00,
2013-03-23 12:05:00,43.5,24.6,29.37,East,92,3.0,16.0,47,0.00,,,0.00,meteohub,2013-03-23 17:05:00,
2013-03-23 12:10:00,43.9,23.9,29.37,SE,125,6.0,16.0,45,0.00,,,0.00,meteohub,2013-03-23 17:10:00,
2013-03-23 12:15:00,43.9,23.9,29.37,NE,50,8.0,16.0,45,0.00,,,0.00,meteohub,2013-03-23 17:15:00,
2013-03-23 12:20:00,44.1,24.6,29.37,East,82,3.0,15.0,46,0.00,,,0.00,meteohub,2013-03-23 17:20:00,
2013-03-23 12:25:00,44.2,24.3,29.37,NE,40,6.0,11.0,45,0.00,,,0.00,meteohub,2013-03-23 17:25:00,
2013-03-23 12:30:00,44.8,24.8,29.37,East,92,6.0,11.0,45,0.00,,,0.00,meteohub,2013-03-23 17:30:00,
2013-03-23 12:35:00,45.0,24.4,29.38,NE,40,6.0,11.0,44,0.00,,,0.00,meteohub,2013-03-23 17:35:00,
2013-03-23 12:40:00,44.4,23.9,29.37,ENE,66,7.0,13.0,44,0.00,,,0.00,meteohub,2013-03-23 17:40:00,
2013-03-23 12:45:00,44.6,23.5,29.37,NNE,17,7.0,13.0,43,0.00,,,0.00,meteohub,2013-03-23 17:45:00,
2013-03-23 12:50:00,44.8,23.7,29.37,ENE,76,6.0,15.0,43,0.00,,,0.00,meteohub,2013-03-23 17:50:00,
2013-03-23 12:55:00,44.8,24.3,29.38,ENE,65,6.0,15.0,44,0.00,,,0.00,meteohub,2013-03-23 17:55:00,
2013-03-23 13:00:00,45.0,25.0,29.36,NE,46,10.0,15.0,45,0.00,,,0.00,meteohub,2013-03-23 18:00:00,
2013-03-23 13:05:00,45.0,24.4,29.36,ENE,71,6.0,14.0,44,0.00,,,0.00,meteohub,2013-03-23 18:05:00,
2013-03-23 13:10:00,45.3,25.2,29.36,NE,49,10.0,14.0,45,0.00,,,0.00,meteohub,2013-03-23 18:10:00,
2013-03-23 13:15:00,45.9,25.2,29.36,ENE,57,9.0,14.0,44,0.00,,,0.00,meteohub,2013-03-23 18:15:00,
2013-03-23 13:20:00,45.9,25.2,29.35,NNE,32,10.0,13.0,44,0.00,,,0.00,meteohub,2013-03-23 18:20:00,
2013-03-23 13:25:00,46.0,25.3,29.36,East,100,6.0,15.0,44,0.00,,,0.00,meteohub,2013-03-23 18:25:00,
2013-03-23 13:31:00,46.6,25.3,29.36,East,84,4.0,15.0,43,0.00,,,0.00,meteohub,2013-03-23 18:31:00,
2013-03-23 13:36:00,46.6,24.8,29.35,ESE,116,8.0,15.0,42,0.00,,,0.00,meteohub,2013-03-23 18:36:00,
2013-03-23 13:41:00,46.6,25.9,29.35,East,100,2.0,10.0,44,0.00,,,0.00,meteohub,2013-03-23 18:41:00,
2013-03-23 13:46:00,46.8,26.1,29.34,NNE,18,9.0,10.0,44,0.00,,,0.00,meteohub,2013-03-23 18:46:00,
2013-03-23 13:51:00,46.8,26.1,29.34,NNE,20,3.0,13.0,44,0.00,,,0.00,meteohub,2013-03-23 18:51:00,
2013-03-23 13:57:00,46.9,26.2,29.34,NE,49,3.0,13.0,44,0.00,,,0.00,meteohub,2013-03-23 18:57:00,
2013-03-23 14:02:00,46.9,26.2,29.34,NE,47,6.0,13.0,44,0.00,,,0.00,meteohub,2013-03-23 19:02:00,
2013-03-23 14:07:00,46.9,26.2,29.33,East,96,4.0,13.0,44,0.00,,,0.00,meteohub,2013-03-23 19:07:00,
2013-03-23 14:12:00,47.3,25.9,29.32,ENE,65,3.0,13.0,43,0.00,,,0.00,meteohub,2013-03-23 19:12:00,
2013-03-23 14:17:00,47.3,26.4,29.32,ENE,60,2.0,13.0,44,0.00,,,0.00,meteohub,2013-03-23 19:17:00,
2013-03-23 14:22:00,47.7,26.2,29.31,ESE,102,4.0,16.0,43,0.00,,,0.00,meteohub,2013-03-23 19:22:00,
2013-03-23 14:27:00,47.7,26.2,29.31,NE,41,9.0,16.0,43,0.00,,,0.00,meteohub,2013-03-23 19:27:00,
2013-03-23 14:32:00,47.1,25.7,29.31,NNE,13,5.0,16.0,43,0.00,,,0.00,meteohub,2013-03-23 19:32:00,
2013-03-23 14:37:00,46.9,26.2,29.31,NE,45,7.0,14.0,44,0.00,,,0.00,meteohub,2013-03-23 19:37:00,
2013-03-23 14:42:00,46.8,26.1,29.30,NE,53,1.0,14.0,44,0.00,,,0.00,meteohub,2013-03-23 19:42:00,
2013-03-23 14:47:00,46.8,26.1,29.30,NE,46,8.0,14.0,44,0.00,,,0.00,meteohub,2013-03-23 19:47:00,
2013-03-23 14:52:00,46.8,26.1,29.29,ENE,65,5.0,14.0,44,0.00,,,0.00,meteohub,2013-03-23 19:52:00,
2013-03-23 14:57:00,46.8,26.1,29.29,ENE,71,7.0,13.0,44,0.00,,,0.00,meteohub,2013-03-23 19:57:00,
2013-03-23 15:02:00,46.6,25.9,29.29,ENE,62,7.0,13.0,44,0.00,,,0.00,meteohub,2013-03-23 20:02:00,
2013-03-23 15:07:00,46.6,26.4,29.28,East,93,3.0,13.0,45,0.00,,,0.00,meteohub,2013-03-23 20:07:00,
2013-03-23 15:13:00,47.1,26.8,29.28,ENE,63,7.0,13.0,45,0.00,,,0.00,meteohub,2013-03-23 20:13:00,
2013-03-23 15:18:00,47.7,26.8,29.28,East,81,3.0,13.0,44,0.00,,,0.00,meteohub,2013-03-23 20:18:00,
2013-03-23 15:23:00,48.0,27.1,29.27,NE,36,7.0,14.0,44,0.00,,,0.00,meteohub,2013-03-23 20:23:00,
2013-03-23 15:28:00,48.0,27.1,29.27,NNE,33,7.0,14.0,44,0.00,,,0.00,meteohub,2013-03-23 20:28:00,
2013-03-23 15:33:00,48.4,27.0,29.27,NNE,17,9.0,19.0,43,0.00,,,0.00,meteohub,2013-03-23 20:33:00,
2013-03-23 15:38:00,48.6,27.1,29.27,ENE,63,10.0,19.0,43,0.00,,,0.00,meteohub,2013-03-23 20:38:00,
2013-03-23 15:43:00,48.4,27.0,29.26,East,83,6.0,19.0,43,0.00,,,0.00,meteohub,2013-03-23 20:43:00,
2013-03-23 15:48:00,48.4,27.5,29.25,NE,40,10.0,15.0,44,0.00,,,0.00,meteohub,2013-03-23 20:48:00,
2013-03-23 15:53:00,48.6,27.1,29.25,ENE,57,7.0,15.0,43,0.00,,,0.00,meteohub,2013-03-23 20:53:00,
2013-03-23 15:58:00,48.7,27.3,29.25,East,90,7.0,14.0,43,0.00,,,0.00,meteohub,2013-03-23 20:58:00,
2013-03-23 16:03:00,48.6,27.1,29.24,NE,50,7.0,14.0,43,0.00,,,0.00,meteohub,2013-03-23 21:03:00,
2013-03-23 16:08:00,48.7,27.3,29.24,East,84,5.0,18.0,43,0.00,,,0.00,meteohub,2013-03-23 21:08:00,
2013-03-23 16:13:00,48.9,27.3,29.24,ENE,72,9.0,18.0,43,0.00,,,0.00,meteohub,2013-03-23 21:13:00,
2013-03-23 16:18:00,48.6,27.1,29.23,East,80,5.0,18.0,43,0.00,,,0.00,meteohub,2013-03-23 21:18:00,
2013-03-23 16:24:00,48.6,27.7,29.23,ENE,74,5.0,17.0,44,0.00,,,0.00,meteohub,2013-03-23 21:24:00,
2013-03-23 16:29:00,48.6,28.2,29.23,East,83,7.0,17.0,45,0.00,,,0.00,meteohub,2013-03-23 21:29:00,
2013-03-23 16:34:00,48.7,27.3,29.23,East,81,6.0,16.0,43,0.00,,,0.00,meteohub,2013-03-23 21:34:00,
2013-03-23 16:39:00,48.7,27.9,29.23,ENE,78,7.0,15.0,44,0.00,,,0.00,meteohub,2013-03-23 21:39:00,
2013-03-23 16:44:00,48.7,27.9,29.23,NE,53,13.0,15.0,44,0.00,,,0.00,meteohub,2013-03-23 21:44:00,
2013-03-23 16:49:00,48.6,27.7,29.23,ENE,74,4.0,16.0,44,0.00,,,0.00,meteohub,2013-03-23 21:49:00,
2013-03-23 16:54:00,48.6,28.2,29.22,ESE,102,6.0,16.0,45,0.00,,,0.00,meteohub,2013-03-23 21:54:00,
2013-03-23 16:59:00,48.6,27.7,29.22,ENE,78,4.0,16.0,44,0.00,,,0.00,meteohub,2013-03-23 21:59:00,
2013-03-23 17:04:00,48.6,28.2,29.22,NE,55,5.0,15.0,45,0.00,,,0.00,meteohub,2013-03-23 22:04:00,
2013-03-23 17:09:00,48.7,28.4,29.22,NE,34,7.0,14.0,45,0.00,,,0.00,meteohub,2013-03-23 22:09:00,
2013-03-23 17:14:00,48.7,28.4,29.23,NE,39,5.0,14.0,45,0.00,,,0.00,meteohub,2013-03-23 22:14:00,
2013-03-23 17:19:00,48.7,28.4,29.22,ENE,75,6.0,12.0,45,0.00,,,0.00,meteohub,2013-03-23 22:19:00,
2013-03-23 17:24:00,48.7,27.9,29.23,East,80,7.0,13.0,44,0.00,,,0.00,meteohub,2013-03-23 22:24:00,
2013-03-23 17:29:00,48.7,28.4,29.23,ENE,61,1.0,13.0,45,0.00,,,0.00,meteohub,2013-03-23 22:29:00,
2013-03-23 17:34:00,48.7,28.4,29.23,ESE,107,4.0,13.0,45,0.00,,,0.00,meteohub,2013-03-23 22:34:00,
2013-03-23 17:39:00,48.7,28.4,29.24,East,83,4.0,11.0,45,0.00,,,0.00,meteohub,2013-03-23 22:39:00,
2013-03-23 17:45:00,48.6,28.2,29.24,East,86,5.0,10.0,45,0.00,,,0.00,meteohub,2013-03-23 22:45:00,
2013-03-23 17:50:00,48.6,28.8,29.24,ESE,115,6.0,10.0,46,0.00,,,0.00,meteohub,2013-03-23 22:50:00,
2013-03-23 17:55:00,48.4,28.0,29.24,East,88,5.0,7.0,45,0.00,,,0.00,meteohub,2013-03-23 22:55:00,
2013-03-23 18:00:00,48.4,28.6,29.23,East,80,3.0,10.0,46,0.00,,,0.00,meteohub,2013-03-23 23:00:00,
2013-03-23 18:05:00,48.2,28.4,29.23,East,96,5.0,10.0,46,0.00,,,0.00,meteohub,2013-03-23 23:05:00,
2013-03-23 18:10:00,48.0,28.2,29.23,East,86,4.0,10.0,46,0.00,,,0.00,meteohub,2013-03-23 23:10:00,
2013-03-23 18:15:00,48.0,28.2,29.23,East,85,3.0,7.0,46,0.00,,,0.00,meteohub,2013-03-23 23:15:00,
2013-03-23 18:20:00,48.0,28.8,29.23,East,79,4.0,8.0,47,0.00,,,0.00,meteohub,2013-03-23 23:20:00,
2013-03-23 18:25:00,48.0,28.8,29.23,ENE,71,2.0,8.0,47,0.00,,,0.00,meteohub,2013-03-23 23:25:00,
2013-03-23 18:30:00,47.8,29.1,29.23,ENE,70,3.0,8.0,48,0.00,,,0.00,meteohub,2013-03-23 23:30:00,
2013-03-23 18:35:00,47.8,29.1,29.23,East,94,5.0,8.0,48,0.00,,,0.00,meteohub,2013-03-23 23:35:00,
2013-03-23 18:40:00,47.7,28.9,29.23,East,93,4.0,7.0,48,0.00,,,0.00,meteohub,2013-03-23 23:40:00,
2013-03-23 18:45:00,47.7,28.9,29.23,ENE,75,1.0,7.0,48,0.00,,,0.00,meteohub,2013-03-23 23:45:00,
2013-03-23 18:50:00,47.5,28.8,29.23,ENE,78,5.0,10.0,48,0.00,,,0.00,meteohub,2013-03-23 23:50:00,
2013-03-23 18:56:00,47.5,28.8,29.23,ENE,67,6.0,10.0,48,0.00,,,0.00,meteohub,2013-03-23 23:56:00,
2013-03-23 19:01:00,47.3,29.1,29.22,ENE,58,4.0,11.0,49,0.00,,,0.00,meteohub,2013-03-24 00:01:00,
2013-03-23 19:06:00,47.1,29.5,29.22,ENE,65,3.0,11.0,50,0.00,,,0.00,meteohub,2013-03-24 00:06:00,
2013-03-23 19:11:00,47.1,29.5,29.22,NE,49,7.0,11.0,50,0.00,,,0.00,meteohub,2013-03-24 00:11:00,
2013-03-23 19:16:00,46.9,29.3,29.22,East,90,3.0,9.0,50,0.00,,,0.00,meteohub,2013-03-24 00:16:00,
2013-03-23 19:21:00,46.9,29.3,29.22,NE,50,3.0,9.0,50,0.00,,,0.00,meteohub,2013-03-24 00:21:00,
2013-03-23 19:26:00,46.9,29.3,29.22,NE,53,3.0,9.0,50,0.00,,,0.00,meteohub,2013-03-24 00:26:00,
2013-03-23 19:31:00,46.9,29.3,29.22,ENE,58,6.0,9.0,50,0.00,,,0.00,meteohub,2013-03-24 00:31:00,
2013-03-23 19:36:00,46.8,29.1,29.22,NE,48,5.0,10.0,50,0.00,,,0.00,meteohub,2013-03-24 00:36:00,
2013-03-23 19:41:00,46.8,29.1,29.21,NE,38,4.0,11.0,50,0.00,,,0.00,meteohub,2013-03-24 00:41:00,
2013-03-23 19:46:00,46.8,29.1,29.22,NE,50,4.0,11.0,50,0.00,,,0.00,meteohub,2013-03-24 00:46:00,
2013-03-23 19:51:00,46.8,29.1,29.22,NE,46,1.0,10.0,50,0.00,,,0.00,meteohub,2013-03-24 00:51:00,
2013-03-23 19:56:00,46.8,29.7,29.22,ENE,57,3.0,9.0,51,0.00,,,0.00,meteohub,2013-03-24 00:56:00,
2013-03-23 20:01:00,46.6,29.5,29.23,ENE,61,3.0,7.0,51,0.00,,,0.00,meteohub,2013-03-24 01:01:00,
2013-03-23 20:07:00,46.6,29.5,29.23,NE,52,2.0,7.0,51,0.00,,,0.00,meteohub,2013-03-24 01:07:00,
2013-03-23 20:12:00,46.6,29.8,29.23,NE,52,4.0,7.0,52,0.00,,,0.00,meteohub,2013-03-24 01:12:00,
2013-03-23 20:17:00,46.4,29.7,29.23,NNE,25,5.0,7.0,52,0.00,,,0.00,meteohub,2013-03-24 01:17:00,
2013-03-23 20:22:00,46.2,29.5,29.23,NE,40,3.0,9.0,52,0.00,,,0.00,meteohub,2013-03-24 01:22:00,
2013-03-23 20:27:00,46.0,29.5,29.23,NE,53,2.0,9.0,52,0.00,,,0.00,meteohub,2013-03-24 01:27:00,
2013-03-23 20:32:00,46.0,28.9,29.23,NNE,29,3.0,13.0,51,0.00,,,0.00,meteohub,2013-03-24 01:32:00,
2013-03-23 20:37:00,46.0,28.9,29.24,East,93,3.0,16.0,51,0.00,,,0.00,meteohub,2013-03-24 01:37:00,
2013-03-23 20:42:00,45.9,28.8,29.24,NE,53,5.0,16.0,51,0.00,,,0.00,meteohub,2013-03-24 01:42:00,
2013-03-23 20:47:00,45.9,29.3,29.24,ENE,61,6.0,16.0,52,0.00,,,0.00,meteohub,2013-03-24 01:47:00,
2013-03-23 20:53:00,45.7,30.0,29.25,NNE,24,3.0,12.0,54,0.00,,,0.00,meteohub,2013-03-24 01:53:00,
2013-03-23 20:58:00,45.3,30.9,29.24,NNE,14,7.0,13.0,57,0.00,,,0.00,meteohub,2013-03-24 01:58:00,
2013-03-23 21:03:00,44.8,31.3,29.24,NNE,22,6.0,17.0,59,0.00,,,0.00,meteohub,2013-03-24 02:03:00,
2013-03-23 21:08:00,44.2,31.6,29.23,NNE,20,16.0,17.0,61,0.00,,,0.00,meteohub,2013-03-24 02:08:00,
2013-03-23 21:13:00,43.7,32.4,29.23,NNE,26,14.0,19.0,64,0.00,,,0.00,meteohub,2013-03-24 02:13:00,
2013-03-23 21:18:00,43.3,32.4,29.23,NE,53,5.0,19.0,65,0.00,,,0.00,meteohub,2013-03-24 02:18:00,
2013-03-23 21:23:00,43.2,32.5,29.24,North,5,6.0,19.0,66,0.00,,,0.00,meteohub,2013-03-24 02:23:00,
2013-03-23 21:28:00,43.0,32.7,29.24,NNE,28,6.0,16.0,67,0.00,,,0.00,meteohub,2013-03-24 02:28:00,
2013-03-23 21:33:00,42.8,32.5,29.24,North,10,6.0,16.0,67,0.00,,,0.00,meteohub,2013-03-24 02:33:00,
2013-03-23 21:38:00,42.6,32.7,29.24,NNE,22,12.0,16.0,68,0.00,,,0.00,meteohub,2013-03-24 02:38:00,
2013-03-23 21:43:00,42.3,32.9,29.24,NE,44,11.0,16.0,69,0.00,,,0.00,meteohub,2013-03-24 02:43:00,
2013-03-23 21:48:00,42.1,33.1,29.24,North,0,11.0,15.0,70,0.00,,,0.00,meteohub,2013-03-24 02:48:00,
2013-03-23 21:53:00,41.9,32.9,29.24,NE,34,12.0,15.0,70,0.00,,,0.00,meteohub,2013-03-24 02:53:00,
2013-03-23 21:58:00,41.7,32.7,29.24,NE,39,11.0,16.0,70,0.00,,,0.00,meteohub,2013-03-24 02:58:00,
2013-03-23 22:03:00,41.5,32.9,29.24,North,355,12.0,18.0,71,0.00,,,0.00,meteohub,2013-03-24 03:03:00,
2013-03-23 22:08:00,41.4,32.7,29.24,NNE,29,7.0,18.0,71,0.00,,,0.00,meteohub,2013-03-24 03:08:00,
2013-03-23 22:13:00,41.4,33.1,29.24,NNE,17,5.0,14.0,72,0.00,,,0.00,meteohub,2013-03-24 03:13:00,
2013-03-23 22:18:00,41.2,32.9,29.24,NE,42,5.0,14.0,72,0.00,,,0.00,meteohub,2013-03-24 03:18:00,
2013-03-23 22:23:00,41.0,32.7,29.24,North,9,7.0,17.0,72,0.00,,,0.00,meteohub,2013-03-24 03:23:00,
2013-03-23 22:28:00,40.8,32.5,29.24,NE,41,7.0,19.0,72,0.00,,,0.00,meteohub,2013-03-24 03:28:00,
2013-03-23 22:34:00,40.6,32.4,29.25,NNE,28,7.0,19.0,72,0.00,,,0.00,meteohub,2013-03-24 03:34:00,
2013-03-23 22:39:00,40.6,32.4,29.24,North,0,9.0,19.0,72,0.00,,,0.00,meteohub,2013-03-24 03:39:00,
2013-03-23 22:44:00,40.3,32.7,29.25,North,5,7.0,19.0,74,0.00,,,0.00,meteohub,2013-03-24 03:44:00,
2013-03-23 22:49:00,39.7,32.5,29.25,NE,40,15.0,18.0,75,0.00,,,0.00,meteohub,2013-03-24 03:49:00,
2013-03-23 22:54:00,39.4,32.7,29.26,NNE,13,9.0,20.0,77,0.00,,,0.00,meteohub,2013-03-24 03:54:00,
2013-03-23 22:59:00,39.0,33.1,29.26,NNE,22,10.0,20.0,79,0.00,,,0.00,meteohub,2013-03-24 03:59:00,
2013-03-23 23:00:00,38.8,33.3,29.26,NNE,31,10.0,20.0,80,0.00,,,0.00,meteohub,2013-03-24 04:00:00,
2013-03-23 23:01:00,38.7,33.1,29.26,NNE,22,10.0,20.0,80,0.00,,,0.00,meteohub,2013-03-24 04:01:00,
2013-03-23 23:07:00,38.3,33.3,29.26,NNE,20,7.0,20.0,82,0.00,,,0.00,meteohub,2013-03-24 04:07:00,
2013-03-23 23:12:00,37.9,33.3,29.26,NNE,12,9.0,15.0,83,0.00,,,0.00,meteohub,2013-03-24 04:12:00,
2013-03-23 23:17:00,37.6,33.3,29.27,NE,56,9.0,13.0,84,0.00,,,0.00,meteohub,2013-03-24 04:17:00,
2013-03-23 23:22:00,37.4,33.3,29.27,ENE,70,7.0,13.0,85,0.00,,,0.00,meteohub,2013-03-24 04:22:00,
2013-03-23 23:27:00,37.2,33.1,29.27,NE,56,9.0,13.0,85,0.00,,,0.00,meteohub,2013-03-24 04:27:00,
2013-03-23 23:32:00,37.0,33.3,29.27,ENE,58,11.0,13.0,86,0.00,,,0.00,meteohub,2013-03-24 04:32:00,
2013-03-23 23:37:00,37.0,33.3,29.27,NE,53,2.0,15.0,86,0.01,,,0.01,meteohub,2013-03-24 04:37:00,
2013-03-23 23:42:00,37.0,33.6,29.26,NNE,25,5.0,15.0,87,0.01,,,0.01,meteohub,2013-03-24 04:42:00,
2013-03-23 23:47:00,36.9,33.4,29.26,ENE,57,3.0,14.0,87,0.01,,,0.01,meteohub,2013-03-24 04:47:00,
2013-03-23 23:52:00,36.7,33.4,29.27,NE,41,11.0,11.0,88,0.01,,,0.01,meteohub,2013-03-24 04:52:00,
2013-03-23 23:57:00,36.1,32.9,29.27,NNE,30,9.0,14.0,88,0.02,,,0.02,meteohub,2013-03-24 04:57:00,